LFQQEDDR

Guest
Details From LFQQ - Lille Lesquin
To EDDR - Saarbrucken
Flight Number -
Tags decoded
Created
Modified
Stats Distance 175 nm / 325 km
Max Altitude 0 ft / 0 m
Waypoints 2
Social Downloads 3
Likes 0
Share VATSIM

Download

Looking for another format? Having issues loading an existing format? Contact us
Advertisement - Login to hide

Notes

Requested: LFQQ EDDR

Route

LFQQ EDDR

ID Type Via Altitude Latitude Longitude Leg Dist Tot Dist Heading (true) Name
O LFQQ APT - 0 ft / 0 m 50.56633˚ 3.09538˚ - 0 nm - Lille Lesquin
O EDDR APT - 0 ft / 0 m 49.21534˚ 7.11261˚ 175 nm 175 nm 116° / 119° Saarbrucken

Altitude Profile

Advertisement - Login to hide

Weather


0- 5 10 15 20 25 30 35+ Temperature / ° C

Clouds and Precipitation
Forecast for 2018-05-22 06:00 UTC. Updated an hour ago

Ground ~20,000 ft ~40,000 ft Winds

LFQQ

Details ICAO LFQQ (LIL)
Name Lille Lesquin
Region France
Timezone Europe/Paris (UTC+2.0)
Stats Elevation 156 ft / 48 m (AMSL)
Location 50.566335° 3.095384°
Runways 2
Magnetic Variation 0.764° E

METAR

LFQQ 220600Z AUTO VRB03KT 3300 BR FEW002 SCT076 BKN100 13/11 Q1012 BECMG 8000 NSW

Decode

TAF

TAF LFQQ 220500Z 2206/2312 30006KT 2000 BR NSC BECMG 2206/2208 8000 NSW BECMG 2209/2211 SCT030TCU TEMPO 2212/2220 3000 SHRA BKN030CB PROB40 TEMPO 2215/2220 TSRA TEMPO 2301/2312 3000 SHRA SCT008 BKN060CB PROB30 TEMPO 2304/2311 TSRA

Decode

Departure Runways

ID Width Length Bearing (true) Bearing (mag) Surface Threshold Offset Overrun Length
02 98 ft / 30 m 5,168 ft / 1,575 m 14.83° 14.07° Asphalt 0 ft / 0 m 0 ft / 0 m
08 146 ft / 45 m 9,250 ft / 2,819 m 77.36° 76.60° Asphalt 0 ft / 0 m 0 ft / 0 m
20 98 ft / 30 m 5,168 ft / 1,575 m 194.83° 194.07° Asphalt 0 ft / 0 m 0 ft / 0 m
26 146 ft / 45 m 9,250 ft / 2,819 m 257.39° 256.63° Asphalt 918 ft / 280 m 0 ft / 0 m

EDDR

Details ICAO EDDR (SCN)
Name Saarbrucken
Region Germany - Civil
Timezone Europe/Berlin (UTC+2.0)
Stats Elevation 1,057 ft / 322 m (AMSL)
Location 49.215343° 7.112610°
Runways 2
Magnetic Variation 2.010° E

METAR

EDDR 220620Z VRB02KT CAVOK 17/13 Q1012 NOSIG

Decode

TAF

TAF EDDR 220500Z 2206/2306 VRB03KT CAVOK TEMPO 2212/2221 TSRA SCT030CB PROB30 TEMPO 2214/2218 06015G25KT 2000 TSRAGR SCT015 BKN030CB PROB40 TEMPO 2300/2306 1200 TSRA BCFG BKN030CB

Decode

Destination Runways

ID Width Length Bearing (true) Bearing (mag) Surface Threshold Offset Overrun Length
09 148 ft / 45 m 6,450 ft / 1,966 m 87.38° 85.37° Asphalt 85 ft / 26 m 0 ft / 0 m
09L 164 ft / 50 m 1,784 ft / 544 m 87.10° 85.09° Grass 0 ft / 0 m 0 ft / 0 m
27 148 ft / 45 m 6,450 ft / 1,966 m 267.40° 265.39° Asphalt 0 ft / 0 m 0 ft / 0 m
27R 164 ft / 50 m 1,784 ft / 544 m 267.10° 265.09° Grass 0 ft / 0 m 0 ft / 0 m

Approach Navaids

Runway Type Ident Frequency Range Bearing (true) Bearing (mag) Slope Elevation
27 Localiser DSB 108.70 MHz 25 nm / 46 km 267.37° 265.36° - 1,021 ft / 311 m (AMSL)
27 Glidescope DSB 108.70 MHz 10 nm / 19 km 267.39° 265.38° 3.00° 1,056 ft / 322 m (AMSL)